Location: Caseificio
(44.7500°N, 11.0500°E)
Time: 22:55:56
(UTC+00:00)

Cosmos 1943 - Pass Details

Date: 26 May 2022
Orbit: 834 x 849 km, 71.0° (Epoch: 29 June)

Event Time Altitude Azimuth Distance (km) Brightness Sun altitude
Exits shadow 02:50:32 - 217° (SW) 2,602 5.1 -7.6°
Reaches altitude 10° 02:50:54 10° 218° (SW) 2,468 5.0 -7.5°
Maximum altitude 02:56:31 61° 299° (WNW) 958 3.4 -6.8°
Drops below altitude 10° 03:02:09 10° 20° (NNE) 2,479 6.7 -6.0°
Sets 03:04:39 0° 24° (NNE) 3,416 7.6 -5.6°
